Content
SEND FEEDBACK

Daily
Averages
Monthly
Summary
United States of America

BERKELEY, MISSOURI


Home > North America > United States > Missouri
Elevation: 564 feet     Latitude: 38 45N     Longitude: 090 22W

WEATHER
 
SELECT A DAY
Number of Records: 206,556;   Date Range: 1/1/95 - 10/23/14
 
SHARE

PRINT THIS DATA

[ ← Previous Day ]
WEATHER ALMANAC - JANUARY 5, 2013
[ Next Day → ]
[ °C ]   °F
Weather ElementAverageHighLow
Temperature39.3 °F46 °F (2:51 pm)30.2 °F (3:51 am)
Dewpoint23.9 °F28.9 °F (10:51 pm)19 °F (1:51 am)
Humidity54.5 %64 % (3:51 am)42 % (2:51 pm)
Barometer30.24 in30.34 in (1:51 am)30.12 in (11:51 pm)
Wind Speed8.2 mph15 mph (11:51 pm)
Weather ElementAverage
Visibility10 mi
Wind DirectionSSW (203.3 °)

Weather ElementTotal
Precipitation---
Heating Degree Days26.9 (Base 65)
Averaged from 24 records on January 5, 2013
WEATHER CONDITIONS BREAKOUT
WIND DIRECTION BREAKOUT
WEATHER BY HOUR - JANUARY 5, 2013
[ °C ]   °F
Local TimeTemperatureDewpointHumidityBarometerVisibilityWind DirectionWind SpeedGust SpeedPrecipitationEventsConditions
1:51 AM32.0 °F19.0 °F59 %30.34 in10.0 miSW (220°)9.2 mphClear
2:51 AM32.0 °F19.4 °F60 %30.30 in10.0 miSW (230°)6.9 mphPartly Cloudy
3:51 AM30.2 °F19.4 °F64 %30.29 in10.0 miCalmScattered Clouds
4:51 AM33.1 °F19.0 °F56 %30.31 in10.0 miCalmPartly Cloudy
5:51 AM32.0 °F19.4 °F60 %30.30 in10.0 miSW (220°)6.9 mphScattered Clouds
6:51 AM34.0 °F21.0 °F59 %30.32 in10.0 miSW (230°)8.1 mphMostly Cloudy
7:51 AM34.0 °F21.9 °F61 %30.33 in10.0 miSW (230°)11.5 mphMostly Cloudy
8:51 AM35.6 °F21.2 °F56 %30.30 in10.0 miSW (230°)9.2 mphSnowLight Snow
8:59 AM35.6 °F21.2 °F56 %30.30 in9.0 miSW (230°)6.9 mph0.00 inOvercast
9:51 AM37.9 °F23.0 °F55 %30.34 in10.0 miWSW (240°)10.4 mph0.00 inMostly Cloudy
10:51 AM39.9 °F24.1 °F53 %30.32 in10.0 miWSW (240°)9.2 mphMostly Cloudy
11:51 AM44.1 °F27.0 °F51 %30.27 in10.0 miWest (260°)9.2 mphMostly Cloudy
12:51 PM45.0 °F26.1 °F48 %30.22 in10.0 miSW (220°)8.1 mphMostly Cloudy
1:51 PM45.0 °F25.0 °F46 %30.18 in10.0 miSSW (200°)10.4 mphOvercast
2:51 PM46.0 °F24.1 °F42 %30.18 in10.0 miSW (220°)12.7 mphOvercast
3:51 PM44.1 °F26.1 °F49 %30.19 in10.0 miSW (220°)6.9 mph0.00 inRainLight Rain
4:51 PM44.1 °F26.1 °F49 %30.17 in10.0 miSouth (180°)5.8 mph0.00 inOvercast
5:51 PM42.1 °F26.1 °F53 %30.18 in10.0 miSouth (190°)5.8 mphOvercast
6:51 PM42.1 °F26.1 °F53 %30.19 in10.0 miSSW (200°)5.8 mphOvercast
7:51 PM43.0 °F26.1 °F51 %30.18 in10.0 miSSW (210°)9.2 mphOvercast
8:51 PM43.0 °F27.0 °F53 %30.16 in10.0 miSW (230°)8.1 mphOvercast
9:51 PM43.0 °F27.0 °F53 %30.16 in10.0 miSW (230°)10.4 mphOvercast
10:51 PM42.1 °F28.9 °F60 %30.14 in10.0 miSW (230°)11.5 mphMostly Cloudy
11:51 PM42.1 °F28.9 °F60 %30.12 in10.0 miSW (220°)15.0 mphMostly Cloudy
Hourly data recorded from KSTL, located miles away from Berkeley, Missouri







STORIES FROM OUR PARTNERS